Location: Doschendorf
(50.0069°N, 11.0602°E)
Time: 10:49:21
(UTC+00:00)

CSL-04 Debris - Pass Details

Date: 17 November 2019
Orbit: 826 x 849 km, 99.0° (Epoch: 13 December)

Event Time Altitude Azimuth Distance (km) Brightness Sun altitude
Rises 17:37:21 0° 164° (SSE) 3,401 7.2 -20.3°
Reaches altitude 10° 17:39:43 10° 165° (SSE) 2,470 6.5 -20.7°
Maximum altitude 17:45:13 85° 254° (WSW) 859 4.2 -21.5°
Drops below altitude 10° 17:50:44 10° 344° (NNW) 2,481 6.8 -22.4°
Sets 17:53:07 0° 345° (NNW) 3,418 7.5 -22.8°
